WX6HNX-15 Weather Reports


Display with metric or nautical units.
time (UTC)temp
F
wind
direction
speed
MPH
gust
MPH
rain 1hr
in
rain 24hr
in
rain mn
in
humidity
%
barometer
mb
20230206083702 39 247 9.0 18.0 0.00 0.00 0.00 72 1019.9
20230206081825 40 243 8.0 19.0 0.00 0.00 0.00 70 1020.1
20230206081525 40 238 11.0 19.0 0.00 0.00 0.00 70 1020.1
20230206080925 40 241 8.0 13.0 0.00 0.00 0.00 68 1020.1
20230206080625 41 245 8.0 12.0 0.00 0.00 0.00 67 1020.1
20230206080020 41 253 9.0 16.0 0.00 0.00 0.00 68 1020.0
20230206075720 40 249 10.0 16.0 0.00 0.00 0.00 68 1019.9
20230206075420 40 248 10.0 16.0 0.00 0.00 0.00 68 1019.9
20230206075120 40 255 5.0 16.0 0.00 0.00 0.00 68 1019.9
20230206074820 41 258 8.0 16.0 0.00 0.00 0.00 68 1019.9
20230206074520 41 259 8.0 16.0 0.00 0.00 0.00 67 1019.9
20230206074220 41 270 8.0 21.0 0.00 0.00 0.00 67 1020.0
20230206073920 41 264 7.0 21.0 0.00 0.00 0.00 68 1019.9
20230206073620 41 259 8.0 21.0 0.00 0.00 0.00 68 1020.0
20230206073320 41 244 13.0 21.0 0.00 0.00 0.00 68 1020.0
20230206073020 41 251 8.0 19.0 0.00 0.00 0.00 69 1020.0
20230206072420 41 249 9.0 23.0 0.00 0.00 0.00 68 1019.9
20230206072120 41 267 9.0 23.0 0.00 0.00 0.00 68 1019.8
20230206071820 41 257 11.0 23.0 0.00 0.00 0.00 69 1019.9
20230206071219 41 246 12.0 21.0 0.00 0.00 0.00 69 1019.7
20230206070919 41 245 15.0 21.0 0.00 0.00 0.00 69 1019.6
20230206070620 41 243 13.0 21.0 0.00 0.00 0.00 70 1019.6
20230206070320 41 245 12.0 21.0 0.00 0.00 0.00 70 1019.7
20230206064426 41 242 8.0 15.0 0.00 0.00 0.00 69 1019.6
20230206064126 41 246 9.0 15.0 0.00 0.00 0.00 69 1019.8
20230206062804 42 245 11.0 23.0 0.00 0.00 0.00 67 1019.5
20230206061304 42 249 11.0 21.0 0.00 0.00 0.00 66 1019.5
20230206060104 42 247 10.0 21.0 0.00 0.00 0.00 67 1019.1